Regional Weather Roundup
Issued by NWS

Home | Current Version | Previous Version | Text Only | Print | Product List | Glossary On
Versions: 1 2 3 4 5 6 7 8 9 10 11 12 13 14 15 16 17 18 19 20 21 22 23 24 25 26 27 28 29 30 31 32 33 34 35 36 37 38 39 40 41 42 43 44 45 46 47 48 49 50
173
ASUS43 KDTX 270610
RWRMI
MICHIGAN HOURLY REGIONAL WEATHER ROUNDUP
NATIONAL WEATHER SERVICE DETROIT/PONTIAC MI
200 AM EDT MON MAR 27 2017

NOTE: "FAIR" INDICATES FEW OR NO CLOUDS BELOW 12,000 FEET WITH NO
SIGNIFICANT WEATHER AND/OR OBSTRUCTION TO VISIBILITY.

MIZ047>049-052>055-059>063-066>070-074>076-081>083-270700-
SOUTHEAST LOWER MICHIGAN

CITY           SKY/WX    TMP DP  RH WIND       PRES   REMARKS
ADRIAN         CLOUDY    51  51 100 W7        29.88F
6HR MIN TEMP:  47; 6HR MAX TEMP:  51; 6HR PCP:  0.07;

ALMA           FOG       45  45 100 CALM      29.84F VSB 1/4
ANN ARBOR      FOG       49  49 100 S6        29.87S VSB 1/4
BAD AXE        FOG       47  47 100 SW5       29.84F VSB 1
6HR MIN TEMP:  47; 6HR MAX TEMP:  48;

CARO           CLOUDY    49  49  99 S5        29.84S FOG
DETROIT CITY   CLOUDY    49  49 100 SW8       29.87F
6HR MIN TEMP:  47; 6HR MAX TEMP:  49; 6HR PCP:  0.03;

DETROIT        CLOUDY    50  49  96 S5        29.88F FOG
6HR MIN TEMP:  49; 6HR MAX TEMP:  51; 6HR PCP:  0.03;

FLINT          CLOUDY    50  49  96 S6        29.85S FOG
6HR MIN TEMP:  50; 6HR MAX TEMP:  51; 6HR PCP:  0.02;

GROSSE ILE     FOG       45  45  99 S5        29.87F VSB 1/4
6HR MIN TEMP:  42; 6HR MAX TEMP:  47; 6HR PCP:  0.19;

HILLSDALE      CLOUDY    50  50 100 SW5       29.87S
HOWELL         CLOUDY    50  48  93 SW3       29.85F FOG
6HR MIN TEMP:  50; 6HR MAX TEMP:  51; 6HR PCP:  0.03;


CITY           SKY/WX    TMP DP  RH WIND       PRES   REMARKS
JACKSON        MOCLDY    51  50  96 SW5       29.86F
6HR MIN TEMP:  49; 6HR MAX TEMP:  53; 6HR PCP:  0.01;

LAMBERTVILLE   CLOUDY    54  52  94 SW5       29.87F
6HR MIN TEMP:  50; 6HR MAX TEMP:  54;

LANSING        MOCLDY    53  50  89 SW7       29.85F FOG
6HR MIN TEMP:  51; 6HR MAX TEMP:  54; 6HR PCP: TRACE;

LAPEER         CLOUDY    48  48  99 SE3       29.86S FOG
6HR MIN TEMP:  48; 6HR MAX TEMP:  49; 6HR PCP:  0.02;

MASON          CLOUDY    51  51  99 SW5       29.86S FOG
MONROE         FOG       47  47 100 CALM      29.87S VSB 1/2
MT. CLEMENS    CLOUDY    45  45 100 S3        29.86S FOG
                                      6HR PCP:  0.01;

PONTIAC        CLOUDY    50  48  93 SW6       29.85F FOG
6HR MIN TEMP:  47; 6HR MAX TEMP:  50; 6HR PCP: TRACE;

PORT HOPE        N/A     37  36  96 CALM      29.82F
6HR MIN TEMP:  36; 6HR MAX TEMP:  48;

PORT HURON     FOG       46  46 100 S6        29.87S VSB 3/4
TRI CITIES     FOG       42  42 100 CALM      29.84F VSB 1/4
6HR MIN TEMP:  41; 6HR MAX TEMP:  43; 6HR PCP: TRACE;

MIDLAND        SNOW      42  42  97 CALM      29.84S VSB 1/4
6HR MIN TEMP:  42; 6HR MAX TEMP:  44;

TROY           CLOUDY    49  47  95 CALM      29.88F FOG
SAGINAW HB     CLOUDY    48  45  87 SW5       29.84S FOG
$$
MIZ043>046-050>051-056>058-064>065-071>073-077>080-270700-
SOUTHWEST LOWER MICHIGAN

CITY           SKY/WX    TMP DP  RH WIND       PRES   REMARKS
BATTLE CREEK   CLOUDY    53  52  96 W8        29.86F
6HR MIN TEMP:  51; 6HR MAX TEMP:  54; 6HR PCP:  0.02;

BENTON HARBOR  CLOUDY    51  49  92 SW9       29.87F
6HR MIN TEMP:  50; 6HR MAX TEMP:  57; 6HR PCP:  0.01;

BIG RAPIDS     FOG       43  42  95 CALM      29.82F VSB 1/4
6HR MIN TEMP:  42; 6HR MAX TEMP:  44;

COLDWATER      CLOUDY    53  53  99 SW9       29.88S
6HR MIN TEMP:  52; 6HR MAX TEMP:  55;

FREMONT        DRIZZLE   47  47 100 W7        29.83S
HOLLAND        CLOUDY    44  43  96 W6        29.87R FOG
6HR MIN TEMP:  44; 6HR MAX TEMP:  56; 6HR PCP:  0.02;

GRAND RAPIDS   CLOUDY    52  52 100 SW10      29.84F FOG
6HR MIN TEMP:  51; 6HR MAX TEMP:  53; 6HR PCP:  0.01;

IONIA          CLOUDY    51  51  97 SW10      29.84S
6HR MIN TEMP:  48; 6HR MAX TEMP:  51; 6HR PCP:  0.01;

KALAMAZOO      CLOUDY    53  49  86 SW7       29.87S
6HR MIN TEMP:  49; 6HR MAX TEMP:  54; 6HR PCP:  0.02;

LUDINGTON      FOG       39  39 100 NW6       29.84S VSB 1/4 WCI  34
6HR MIN TEMP:  38; 6HR MAX TEMP:  47; 6HR PCP:  0.01;

MARSHALL       CLOUDY    53  52  97 SW6       29.86F FOG
6HR MIN TEMP:  53; 6HR MAX TEMP:  54;

MOUNT PLEASANT FOG       42  42  97 CALM      29.83F VSB 1/4
6HR MIN TEMP:  42; 6HR MAX TEMP:  44;

MUSKEGON       LGT RAIN  42  40  92 W6        29.86S
6HR MIN TEMP:  42; 6HR MAX TEMP:  51; 6HR PCP:  0.08;

SOUTH HAVEN    FOG       47  46  99 W3        29.87F VSB 1/2
$$
MIZ016>042-270700-
NORTHERN LOWER MICHIGAN

CITY           SKY/WX    TMP DP  RH WIND       PRES   REMARKS
ALPENA         CLOUDY    37  37 100 CALM      29.83S
6HR MIN TEMP:  37; 6HR MAX TEMP:  37; 6HR PCP:  0.05;

BEAVER ISLAND  LGT RAIN  34  34 100 N3        29.84S
6HR MIN TEMP:  34; 6HR MAX TEMP:  35;

BELLAIRE       CLOUDY    40  39  97 CALM      29.82F FOG
6HR MIN TEMP:  40; 6HR MAX TEMP:  44;

CADILLAC       FOG       42  41  97 SW3       29.81S VSB 1/4
CHARLEVOIX     FOG       39  39 100 CALM      29.85F VSB 1/2
FRANKFORT      CLOUDY    39  38  93 N3        29.83S FOG
GAYLORD        FOG       41  38  89 CALM      29.80F VSB 1/2
6HR MIN TEMP:  41; 6HR MAX TEMP:  42;

GRAYLING       FOG       39  39 100 CALM      29.82F VSB 1
HARBOR SPRINGS FOG       36  36 100 CALM      29.82F VSB 3/4
HOUGHTON LAKE  FOG       40  40 100 CALM      29.82F VSB 1/2
6HR MIN TEMP:  40; 6HR MAX TEMP:  41;

MANISTEE       LGT RAIN  39  39 100 W6        29.83S VSB 3/4 WCI  35
OSCODA         FOG       39  39  97 CALM      29.83S VSB 1/2
6HR MIN TEMP:  38; 6HR MAX TEMP:  40;

PELLSTON       FOG       36  34  92 CALM      29.83F VSB 3/4
6HR MIN TEMP:  35; 6HR MAX TEMP:  36; 6HR PCP:  0.02;

ROGERS CITY    CLOUDY    36  35  96 CALM      29.84S FOG
TRAVERSE CITY  CLOUDY    42  41  96 CALM      29.81S FOG
6HR MIN TEMP:  42; 6HR MAX TEMP:  45;

$$
MIZ007>008-015-270700-
EASTERN UPPER MICHIGAN

CITY           SKY/WX    TMP DP  RH WIND       PRES   REMARKS
KINROSS        MIX PCPN  32 N/A N/A N3        29.85S
MACKINAC ISLAN FOG       33  33 100 E5        29.82F VSB 1/2 WCI  29
6HR MIN TEMP:  33; 6HR MAX TEMP:  34; 6HR PCP:  0.03;

NEWBERRY       MIX PCPN  32  31  97 N3        29.84F
6HR MIN TEMP:  32; 6HR MAX TEMP:  32; 6HR PCP:  0.02;

S. S. MARIE    LGT RAIN  35  33  92 CALM      29.84F FOG
6HR MIN TEMP:  34; 6HR MAX TEMP:  35; 6HR PCP:  0.15;

MUNISING         N/A     34  33  96 NW8       29.85F WCI  27
6HR MIN TEMP:  33; 6HR MAX TEMP:  36; 6HR PCP:  0.08;

$$
MIZ004>006-011>014-085-270700-
CENTRAL UPPER MICHIGAN

CITY           SKY/WX    TMP DP  RH WIND       PRES   REMARKS
MANISTIQUE     MIX PCPN  34  32  93 N6        29.84F WCI  29
ESCANABA       CLOUDY    35  35 100 NW3       29.86S
6HR MIN TEMP:  35; 6HR MAX TEMP:  36; 6HR PCP: TRACE;

MENOMINEE        N/A    N/A N/A N/A MISG        N/A
SAWYER-GWINN   MIX PCPN  32  31  99 N6        29.85S WCI  26
6HR MIN TEMP:  32; 6HR MAX TEMP:  33; 6HR PCP:  0.10;

$$
MIZ001>003-009>011-084-270700-
WESTERN UPPER MICHIGAN

CITY           SKY/WX    TMP DP  RH WIND       PRES   REMARKS
IRON MOUNTAIN  CLOUDY    35  32  88 NW6       29.85R WCI  30
6HR MIN TEMP:  35; 6HR MAX TEMP:  37; 6HR PCP: TRACE;

HOUGHTON       FOG       33  31  92 NW5       29.87S VSB 1/4 WCI  29
6HR MIN TEMP:  33; 6HR MAX TEMP:  34; 6HR PCP:  0.04;

COPPER HARBOR    N/A     34  33  96 NE7       29.88F WCI  28
6HR MIN TEMP:  34; 6HR MAX TEMP:  34; 6HR PCP:  0.07;

IRONWOOD       FOG       32  31  96 CALM      29.92R VSB 1/4
6HR MIN TEMP:  32; 6HR MAX TEMP:  33; 6HR PCP: TRACE;

$$

ABBREVIATIONS USED IN REMARKS
   TC - TEMPERATURE IN CELSIUS
  WCI - WIND CHILL INDEX
   HX - HEAT INDEX
  VSB - VISIBILITY





USA.gov is the U.S. government's official web portal to all federal, state and local government web resources and services.